GFSFLT2_925_temp_000.txt.gz
Temp
20 20 20 20 20 20 19 19 19 18 18 17 17 17 17 17 16 16 16 16 16 16 16 16 16 15 15 15 15 15 16 16
20 20 20 19 19 19 19 19 18 18 17 17 17 17 17 17 17 17 17 16 16 16 16 16 15 15 15 15 15 15 16 16
20 19 19 19 19 19 19 18 18 18 17 17 17 17 17 16 16 16 16 16 16 16 16 16 15 15 15 15 14 15 15 15
19 19 19 18 18 18 18 18 18 18 17 17 17 16 16 16 16 16 16 16 15 15 15 15 15 15 15 15 15 14 14 14
20 20 19 18 18 18 18 18 18 17 17 17 17 16 16 16 16 15 15 15 15 14 14 14 14 14 14 15 15 15 14 13
20 20 20 19 18 18 18 18 17 17 17 17 16 16 16 16 16 15 15 14 14 14 14 13 13 14 14 14 14 14 14 14
21 20 20 19 18 18 18 17 17 17 17 17 16 16 16 16 16 15 14 14 14 13 14 14 13 13 13 14 14 13 14 14
21 20 19 19 18 18 18 18 17 17 17 16 16 16 16 15 15 15 14 14 13 13 14 14 14 13 13 13 13 13 13 13
20 20 20 19 19 19 18 18 18 17 17 17 16 16 16 16 15 15 14 13 13 13 13 13 13 13 13 13 13 13 13 12
20 20 20 20 19 19 18 18 17 17 17 17 16 16 16 16 15 15 15 14 13 13 13 13 13 13 13 13 13 12 12 12
21 20 20 20 19 19 18 17 17 17 17 16 16 16 15 15 15 15 15 14 14 14 14 13 13 13 13 13 12 12 12 12
21 20 20 20 20 19 19 18 18 18 18 17 17 16 16 15 15 15 15 14 14 14 14 13 13 13 13 12 12 12 12 12
20 21 20 20 20 19 19 19 19 18 18 18 17 17 17 15 15 15 15 14 15 15 14 13 13 12 12 12 12 12 12 12
21 21 20 20 20 19 17 17 18 18 18 18 17 17 17 16 16 16 15 14 14 14 14 13 13 12 11 8 7 9 11 11
20 20 19 18 17 17 17 16 16 16 17 17 17 17 16 15 15 15 15 15 14 14 14 13 12 11 11 10 5 5 5 10
18 17 17 16 16 15 15 14 14 15 15 14 15 15 15 14 13 13 14 13 13 14 14 13 11 10 8 9 8 8 5 5
16 16 16 16 16 15 14 14 13 13 14 14 14 14 14 14 14 12 12 11 11 11 11 10 9 9 8 7 7 7 6 4
17 17 16 15 15 14 13 12 12 12 13 13 13 13 13 13 13 12 9 8 8 9 8 7 6 6 5 5 5 5 4 4
15 14 13 13 12 12 12 12 11 11 11 11 11 11 11 10 9 8 7 6 5 5 5 4 4 4 3 3 3 3 2 2
13 13 12 12 12 12 11 11 10 10 11 11 10 10 8 6 7 6 5 5 6 6 5 4 3 3 2 0 -0 -0 1 2

GFSFLT2_925_temp_006.txt.gz
Temp
20 20 19 19 19 19 19 18 18 18 18 18 18 17 17 16 16 16 15 15 15 15 15 15 16 16 16 16 16 16 18 18
20 19 20 19 19 19 19 18 18 18 18 17 17 17 16 16 16 15 16 16 16 16 15 15 15 15 15 15 16 17 18 18
20 20 20 19 20 19 19 18 18 18 18 18 17 18 17 17 16 16 16 16 16 16 15 15 16 15 15 15 16 18 17 18
20 20 20 19 19 19 18 18 19 18 18 17 18 17 17 16 16 16 16 16 16 16 15 15 16 17 17 16 17 16 17 17
21 19 19 19 20 20 20 20 19 19 17 17 17 17 17 17 17 17 16 16 16 16 16 16 15 15 16 16 16 16 17 17
21 20 19 19 20 20 20 19 19 19 19 17 17 18 18 17 17 17 17 16 16 16 16 15 14 15 15 15 15 16 17 17
22 20 19 20 19 19 19 19 19 18 18 18 17 17 18 17 17 17 17 16 16 16 16 15 15 15 15 15 15 15 15 16
22 21 20 20 19 19 19 19 19 19 18 18 17 17 17 17 17 17 17 17 16 16 16 15 15 15 15 14 15 15 15 15
22 21 20 20 19 19 19 19 18 19 18 18 17 17 17 17 17 17 17 17 16 16 15 15 15 15 15 15 14 14 15 14
22 21 21 20 20 19 19 19 18 19 18 18 17 16 16 16 17 17 17 16 16 16 16 16 16 15 16 16 15 15 15 14
22 21 21 21 19 19 19 18 19 19 18 18 17 17 16 16 16 17 16 16 16 16 16 16 16 16 16 16 16 16 15 15
22 22 21 19 19 18 19 18 18 18 18 17 16 16 15 15 16 16 15 15 16 16 16 16 16 15 16 17 16 15 15 15
21 20 17 18 19 19 19 19 18 18 17 15 15 15 15 14 15 15 15 15 15 15 15 15 15 15 15 16 16 15 14 15
19 18 17 17 18 17 16 16 17 16 16 15 15 14 14 14 14 14 14 14 14 14 14 14 15 15 15 15 17 17 16 15
18 17 16 16 16 17 17 17 17 17 16 15 14 13 13 13 13 13 12 13 13 14 14 14 14 15 15 14 16 17 18 17
16 16 16 15 14 15 15 15 15 14 14 14 13 13 13 12 12 12 12 12 12 12 13 13 13 14 14 14 14 14 16 16
15 16 15 15 14 14 14 14 14 14 13 13 13 13 12 12 11 10 10 11 11 10 10 10 11 12 12 13 13 13 13 13
15 16 15 14 14 13 12 12 12 13 13 12 12 12 12 11 10 9 9 9 9 9 8 8 8 8 8 8 8 7 9 11
15 15 15 14 13 13 12 12 12 12 12 11 10 11 10 10 8 8 9 8 8 8 7 7 5 4 4 3 2 2 2 2
15 15 15 14 13 13 13 12 11 11 10 9 9 9 8 7 7 7 7 7 7 7 6 5 5 5 4 2 2 2 1 0

GFSFLT2_925_temp_009.txt.gz
Temp
23 22 20 20 20 19 19 18 18 18 17 18 17 17 17 17 17 17 17 17 17 17 16 17 17 16 16 16 17 17 18 20
23 23 23 22 19 20 19 19 18 18 18 18 18 17 18 17 16 16 16 16 16 16 16 16 16 16 16 16 17 18 18 20
24 23 22 22 22 20 19 19 19 19 18 18 18 19 19 19 17 16 16 16 16 16 16 16 16 17 17 17 17 19 19 20
23 23 22 22 22 21 21 21 21 20 20 19 20 19 19 18 18 17 17 17 17 17 17 17 17 18 18 18 18 19 18 20
24 22 21 22 22 22 23 22 21 21 20 19 19 19 20 19 19 19 19 18 18 18 18 18 17 16 17 17 18 18 19 19
24 22 21 21 22 23 22 22 21 21 20 19 19 20 19 19 19 19 19 19 18 18 18 18 17 16 16 16 17 17 18 19
25 23 22 22 21 22 21 21 21 20 20 20 19 19 19 19 18 18 19 19 19 18 18 18 17 17 17 17 17 17 17 17
25 24 22 22 22 21 21 21 21 21 20 19 19 18 18 18 18 19 19 19 19 18 18 17 17 17 17 17 16 16 17 17
25 24 23 22 21 21 21 21 20 21 20 19 19 18 18 18 18 18 18 18 18 18 18 18 17 17 17 17 17 16 16 16
25 24 23 22 22 21 21 21 20 21 20 20 19 18 18 17 18 18 18 17 18 18 18 18 18 18 18 17 18 17 17 16
25 23 23 22 21 21 21 20 20 21 20 20 19 18 17 17 17 17 17 17 17 17 17 18 18 18 18 18 18 17 17 17
25 23 23 22 22 21 21 21 20 20 20 19 17 17 16 16 16 16 16 16 17 17 17 17 16 17 17 17 18 18 18 17
24 23 20 21 21 21 21 21 20 20 19 17 17 16 16 16 16 16 16 16 16 15 16 16 16 16 17 17 17 17 17 17
21 21 20 20 20 19 18 18 19 18 18 17 17 15 15 15 15 15 15 15 14 14 14 15 15 15 16 17 17 17 18 17
20 19 18 18 18 19 18 19 19 18 17 17 16 15 15 15 14 14 13 13 14 14 14 14 14 14 15 16 16 16 18 18
19 18 18 17 16 17 16 17 17 16 16 16 15 14 14 14 14 13 12 12 12 12 13 12 12 13 13 14 15 15 15 14
18 18 17 17 16 15 15 15 15 15 15 14 14 14 13 13 13 12 11 11 11 11 11 10 10 11 12 12 11 11 12 9
18 18 18 16 15 15 15 14 13 14 14 13 13 12 12 12 11 11 10 10 10 10 10 9 8 7 7 7 6 6 6 6
18 18 18 17 16 15 15 14 14 13 13 12 11 11 11 10 10 9 9 10 9 9 7 6 5 4 4 5 5 4 3 3
17 17 17 17 16 15 14 13 13 12 11 10 9 9 9 9 9 9 8 8 7 7 6 5 5 4 4 3 3 4 3 2

GFSFLT2_925_temp_015.txt.gz
Temp
21 21 21 21 20 19 19 19 19 19 19 19 18 18 18 18 18 18 18 18 18 18 17 17 17 18 18 18 18 18 18 18
22 21 21 21 21 20 20 20 19 19 19 19 18 18 18 18 18 18 18 18 18 18 17 17 17 17 17 17 18 18 18 18
22 21 21 21 21 21 20 20 20 19 19 19 18 18 19 19 18 18 18 18 18 18 18 18 17 17 17 17 17 17 17 17
22 22 21 21 21 21 21 20 20 19 19 19 19 19 19 18 18 18 18 18 18 18 18 18 17 17 17 17 17 17 17 17
22 22 22 22 21 21 21 20 20 19 19 19 19 19 19 19 18 18 18 18 18 18 18 18 18 17 17 17 17 17 17 17
22 22 22 22 22 21 20 21 20 20 19 19 19 19 19 18 18 18 18 18 18 18 18 18 18 18 17 17 17 17 17 17
22 22 23 22 21 21 21 21 21 20 20 19 19 18 18 18 18 18 18 18 18 18 18 18 18 18 17 17 17 17 17 17
22 22 22 22 21 21 21 21 21 20 20 20 19 18 18 18 18 18 18 18 18 17 17 17 17 17 17 17 17 17 17 17
20 19 20 21 21 21 20 21 21 20 20 20 19 18 18 17 17 17 17 17 17 17 17 16 17 17 17 17 17 17 17 17
21 19 19 20 20 21 21 20 21 20 19 19 18 18 17 17 17 16 16 16 16 16 16 16 15 15 15 16 16 16 16 16
20 19 20 20 19 21 21 21 21 20 19 18 17 17 17 17 16 16 16 15 15 15 14 14 14 14 14 14 15 15 15 16
20 19 19 20 21 21 20 19 19 19 18 17 17 16 16 16 16 15 15 14 14 14 14 13 13 13 13 13 14 14 14 15
19 19 20 20 20 20 19 19 19 17 17 16 16 16 16 16 14 14 14 13 13 13 12 12 12 12 12 12 12 13 13 13
19 19 19 19 18 18 18 18 18 18 17 16 14 14 14 13 13 13 12 12 12 11 11 11 11 11 10 10 8 11 11 11
18 18 18 18 18 18 18 17 17 16 15 15 14 13 13 12 12 11 11 11 10 10 10 10 10 10 9 8 6 6 7 10
18 18 18 18 17 17 16 15 15 14 14 13 13 12 11 11 10 10 10 10 10 9 9 9 9 8 8 8 7 6 5 6
18 18 18 18 17 16 15 15 14 13 12 12 11 11 10 10 9 9 9 9 8 8 8 7 7 7 5 5 6 6 6 3
18 18 17 17 16 16 15 14 12 12 11 10 10 9 9 8 8 8 8 8 7 7 6 6 5 5 5 5 5 4 4 4
18 17 17 17 15 14 13 12 11 10 9 9 9 9 8 7 7 6 6 6 6 5 5 5 4 4 4 4 4 4 4 3
17 17 16 14 14 13 12 11 11 10 9 9 8 7 7 6 6 5 5 4 4 4 4 3 3 3 3 3 3 3 3 3

GFSFLT2_925_temp_021.txt.gz
Temp
19 19 19 20 19 19 19 19 19 19 19 19 18 18 18 18 18 18 18 18 17 17 17 17 17 17 17 17 17 17 17 17
20 20 20 19 19 19 19 19 19 19 18 18 18 18 18 18 18 17 17 17 18 17 17 17 17 17 17 17 17 17 17 17
20 20 20 20 20 19 19 19 18 18 18 18 18 18 18 17 17 17 17 18 17 17 17 17 17 17 17 17 17 17 17 17
20 20 20 20 20 19 19 18 18 18 18 18 18 18 18 18 17 17 17 17 17 17 17 17 17 17 17 17 17 17 17 17
20 20 20 20 20 19 19 19 19 19 18 18 18 18 18 18 17 17 17 17 17 17 17 16 16 16 16 16 16 17 17 17
20 20 20 20 20 20 20 19 19 19 19 19 18 18 18 18 17 17 17 16 16 16 16 16 16 16 16 16 16 16 16 16
20 20 20 20 20 20 20 19 19 19 19 19 19 18 18 17 17 17 17 17 17 16 16 16 16 16 15 15 15 15 15 15
21 20 20 20 20 20 20 19 19 19 19 19 18 18 18 17 17 17 17 16 16 16 15 15 14 14 14 14 14 14 14 14
20 19 19 20 20 20 20 20 19 19 18 18 18 17 17 16 16 16 16 15 15 15 15 14 14 13 13 13 13 13 13 13
18 18 19 19 19 19 19 19 18 18 17 17 17 16 16 16 15 15 14 14 14 13 13 13 13 12 12 12 12 12 12 12
17 18 18 18 17 19 18 18 18 16 16 16 16 16 15 15 14 14 13 13 12 12 12 11 11 11 11 11 11 11 11 11
16 17 17 16 17 17 17 16 16 15 15 15 15 15 14 14 14 13 12 12 12 12 11 11 10 9 9 10 9 10 10 10
17 17 15 17 16 16 15 15 15 15 15 15 14 14 14 14 13 12 12 11 10 10 9 9 9 8 8 8 9 9 9 9
17 17 17 17 17 17 16 15 15 15 14 14 14 13 13 12 12 11 11 11 10 9 8 8 7 7 6 6 5 7 7 7
17 18 18 18 17 17 16 15 14 14 13 12 11 10 10 10 9 9 9 8 8 7 7 7 6 7 6 5 4 4 5 6
18 18 18 17 17 17 17 17 16 12 11 10 10 10 9 9 9 8 8 7 7 6 6 5 5 5 5 5 4 4 3 4
17 16 17 16 16 16 16 14 12 11 10 10 9 10 10 9 8 8 7 7 6 5 5 4 4 3 3 3 3 3 3 2
15 15 15 15 15 14 14 13 11 11 11 11 11 10 9 8 8 7 6 5 5 4 4 4 3 3 3 2 2 2 2 2
15 15 14 14 13 13 12 12 12 12 11 11 10 10 9 8 7 6 6 5 4 4 4 3 3 3 3 2 2 2 2 1
13 13 13 13 12 12 12 12 11 11 11 10 10 9 8 6 6 6 5 4 4 4 3 3 3 3 2 2 2 1 1 0

GFSFLT2_925_temp_024.txt.gz
Temp
18 18 18 18 19 19 19 19 19 18 18 18 18 18 17 17 17 17 17 17 17 17 17 17 17 17 17 17 17 17 17 17
18 18 19 19 19 19 19 18 18 18 18 18 18 18 17 17 17 17 17 17 17 17 17 17 17 17 17 17 17 17 17 17
19 19 19 19 19 18 18 18 18 18 18 18 18 17 17 17 17 17 17 17 17 17 17 17 17 17 17 17 17 17 17 17
19 19 19 19 19 19 19 18 18 18 18 18 18 17 17 17 17 17 17 17 17 17 16 16 16 16 16 16 16 17 17 16
20 19 20 19 19 19 19 18 18 18 18 18 18 18 17 17 17 17 17 17 17 16 16 16 16 16 16 16 16 16 16 16
20 19 20 19 19 19 19 18 18 18 18 18 18 18 17 17 17 17 16 16 16 16 16 16 16 15 15 15 15 15 15 15
19 19 19 19 19 19 18 18 19 18 18 18 17 17 17 17 16 16 16 15 15 15 15 14 14 14 14 14 14 14 14 14
19 18 18 18 18 18 18 18 18 18 18 17 17 16 17 16 16 16 15 15 14 14 14 14 13 13 13 13 13 13 13 13
19 18 17 17 17 17 17 18 18 17 16 17 16 16 16 16 15 15 14 14 14 14 13 13 13 12 13 12 12 12 12 11
18 18 17 17 17 17 15 16 17 16 16 15 15 15 15 15 15 15 15 14 13 13 12 12 12 12 12 12 11 11 10 10
17 16 16 16 17 15 15 16 16 15 15 15 15 15 15 15 15 14 13 13 12 12 11 11 10 10 10 10 10 10 9 9
16 15 15 14 14 15 15 15 15 15 16 15 15 15 14 14 13 12 11 11 10 10 9 9 8 7 8 8 9 9 8 8
16 16 14 14 14 15 16 16 16 15 15 14 14 14 13 13 12 11 10 11 10 9 8 8 8 7 7 7 8 8 9 8
16 15 15 15 16 16 16 15 15 14 14 13 13 12 12 11 11 11 10 10 9 8 7 6 6 6 5 5 4 6 6 7
16 16 16 16 17 16 16 15 14 13 12 12 11 11 11 11 10 9 9 8 8 7 6 5 5 5 5 5 3 3 3 5
16 16 16 16 16 16 15 15 13 11 11 10 10 10 10 10 9 9 9 8 7 5 5 5 4 4 4 4 3 3 3 4
16 16 16 16 16 15 14 14 12 11 11 11 11 11 10 10 8 8 7 6 5 4 4 4 3 3 2 2 2 2 2 2
16 16 15 15 14 14 14 13 12 12 11 11 11 10 9 8 8 7 6 5 5 4 4 4 3 3 3 2 2 1 1 0
14 14 14 13 13 13 12 12 12 11 11 11 11 10 10 9 7 6 5 5 4 4 4 3 3 3 2 2 2 1 0 0
13 13 13 12 12 12 12 12 11 11 11 10 10 9 8 7 6 6 5 5 4 4 4 3 3 3 3 2 2 1 0 -0

GFSFLT2_925_temp_027.txt.gz
Temp
17 17 18 18 18 18 18 18 18 18 18 18 18 17 17 17 17 17 17 17 17 17 17 17 17 17 17 17 17 17 17 17
17 17 17 18 18 18 18 18 18 18 18 18 17 17 17 17 17 17 17 17 17 17 17 17 17 17 17 17 17 17 17 17
17 18 17 18 18 18 18 18 18 17 18 17 17 17 17 17 17 17 17 17 17 17 17 17 17 17 17 17 17 17 17 16
18 17 18 18 18 18 18 18 17 17 17 17 17 17 17 17 17 17 17 17 17 16 16 16 16 16 16 16 16 16 16 16
18 18 18 18 18 17 17 17 17 17 17 17 17 17 17 17 17 16 16 16 16 16 16 16 15 15 15 15 15 15 14 14
18 18 18 18 17 17 18 18 17 17 17 17 17 17 17 16 16 16 16 16 16 15 15 15 15 14 14 14 14 14 13 13
18 18 17 17 17 17 17 17 17 16 16 16 16 16 16 16 16 16 16 15 15 15 14 14 14 14 14 13 13 13 14 13
18 17 17 17 17 17 17 16 15 15 15 16 16 16 15 15 15 15 15 15 15 14 14 13 13 13 13 13 13 12 12 12
17 16 17 17 17 17 16 16 15 14 14 15 16 15 15 15 15 15 15 14 13 13 13 12 11 11 11 11 11 10 10 10
15 16 16 16 16 16 15 15 15 14 14 15 16 15 15 15 15 14 13 12 13 12 12 11 10 10 10 11 10 10 9 9
15 15 16 16 17 16 13 14 15 15 15 15 15 15 15 14 13 12 12 12 11 11 10 9 9 9 9 10 10 10 8 8
15 15 16 14 15 15 14 15 14 15 15 15 14 13 13 13 12 11 11 11 10 8 8 8 8 7 8 9 8 9 8 7
16 15 16 15 14 14 14 14 14 14 13 13 13 13 12 12 11 10 10 9 8 7 7 7 8 6 8 8 9 7 7 7
15 15 16 15 15 15 15 15 13 13 13 12 12 11 11 11 10 10 9 8 8 8 6 6 6 5 6 7 10 9 7 7
14 15 16 15 15 15 14 14 12 11 11 11 11 11 11 10 10 9 9 8 7 6 5 5 6 5 4 6 8 8 6 6
15 15 15 14 14 14 14 13 13 11 11 11 11 11 10 10 10 9 8 7 6 5 5 4 4 5 5 5 4 4 5 6
14 14 14 14 14 14 14 13 12 11 11 11 11 11 10 10 9 8 7 7 6 5 4 4 4 4 4 4 3 4 4 4
15 14 14 14 14 13 13 12 12 11 11 11 11 10 10 10 9 7 6 6 5 4 4 3 3 3 3 3 3 3 3 3
14 14 13 13 13 12 12 12 11 11 10 9 9 9 8 8 7 6 6 5 5 4 3 3 3 3 3 3 2 2 2 2
13 13 12 12 12 12 11 11 11 10 9 9 9 8 8 7 7 6 6 6 4 3 3 3 2 2 2 2 2 1 1 0

GFSFLT2_925_temp_030.txt.gz
Temp
18 18 17 17 17 18 18 18 17 18 17 17 17 17 17 17 17 17 17 17 17 17 17 17 17 17 17 17 18 18 19 19
18 19 18 18 17 18 18 18 17 17 17 17 17 17 17 17 17 17 17 17 17 17 17 17 17 17 17 17 17 18 19 19
18 19 19 18 18 17 17 17 17 17 17 17 17 18 17 17 17 17 17 17 17 17 17 17 17 17 17 16 17 18 18 18
18 18 17 17 18 17 18 17 18 18 18 17 18 17 17 17 17 17 17 17 16 16 16 16 16 17 17 17 17 16 18 17
18 17 17 18 18 18 18 18 18 17 16 17 16 16 17 17 17 17 16 16 17 16 16 16 15 15 15 15 16 16 17 17
18 17 17 17 18 18 18 18 17 17 17 16 17 17 17 17 17 16 16 16 16 16 16 15 15 15 14 14 15 15 16 16
18 17 17 17 17 17 17 17 16 16 16 15 16 17 16 16 15 16 16 16 16 16 15 15 15 15 14 14 14 14 14 15
18 18 17 17 17 17 16 16 15 16 15 16 16 16 15 15 15 16 15 15 15 15 14 14 14 14 14 14 13 13 13 13
18 17 17 17 17 16 15 15 14 15 15 15 15 15 15 15 15 15 13 12 13 12 13 14 14 14 14 14 14 14 13 12
17 16 16 15 15 15 15 15 15 14 14 14 14 14 13 13 13 11 12 12 13 13 13 13 13 13 13 13 13 13 13 12
16 16 14 15 15 17 14 15 16 14 14 14 14 14 14 13 12 12 12 12 12 11 12 12 12 12 11 12 12 12 13 12
16 16 16 16 16 14 14 14 13 13 12 12 13 12 12 12 12 11 12 12 11 10 10 11 11 11 10 11 11 11 12 11
16 15 15 16 16 12 13 13 12 12 13 12 12 11 12 12 12 11 11 11 10 10 10 10 10 10 9 11 11 12 10 11
16 15 15 16 16 16 16 15 14 14 12 11 11 11 11 11 11 11 10 11 10 9 9 9 10 9 8 9 12 12 12 10
17 17 17 16 16 15 15 14 13 14 13 13 12 11 11 10 10 10 10 10 10 9 8 8 8 8 8 8 10 10 9 9
18 17 17 16 15 16 16 17 17 15 13 12 12 10 10 10 10 10 9 9 9 9 8 7 7 8 8 8 7 7 8 8
17 17 16 15 15 15 15 15 14 13 13 12 12 11 10 10 10 9 9 9 8 7 7 7 7 7 7 7 6 6 6 7
16 16 15 15 14 14 14 13 14 14 13 13 13 12 11 11 9 9 8 8 7 7 7 6 6 6 5 5 5 6 6 6
15 16 15 14 14 14 13 13 13 13 12 12 11 11 11 10 9 8 8 8 7 6 6 6 6 5 5 5 4 4 4 4
16 15 15 14 14 13 12 12 12 12 11 10 10 10 9 8 8 7 7 7 7 6 6 5 5 5 4 4 4 4 4 3

GFSFLT2_925_temp_036.txt.gz
Temp
17 17 17 17 18 18 17 17 18 18 18 17 17 17 17 17 17 17 17 17 17 17 18 18 18 18 18 19 19 19 19 19
17 17 17 17 17 17 17 17 17 17 17 18 18 18 17 17 17 17 17 17 17 17 18 18 17 17 17 18 18 18 19 19
17 17 17 18 18 17 17 17 17 18 18 18 18 18 17 17 17 18 17 17 17 17 18 18 17 17 17 17 17 17 18 18
19 18 18 18 17 17 18 18 18 18 18 18 18 18 18 18 18 18 18 18 17 17 18 17 16 17 16 16 16 16 17 17
20 20 20 19 19 18 18 18 18 18 18 18 18 19 18 18 18 18 18 18 17 18 18 17 16 16 16 16 16 15 15 16
19 19 20 20 19 20 19 19 19 18 18 18 18 18 18 18 19 18 18 18 18 17 16 16 16 16 16 16 16 15 15 15
19 19 19 20 20 19 19 19 17 18 17 17 18 18 18 18 18 18 17 17 17 16 15 15 15 15 15 15 15 15 15 15
19 19 19 20 20 19 18 17 17 16 17 16 17 17 17 16 17 17 17 16 15 15 14 15 14 14 14 14 14 14 14 14
19 19 19 19 18 18 17 17 17 17 15 16 15 16 16 16 16 16 16 15 14 14 14 14 14 13 13 14 14 13 13 14
20 19 18 17 17 17 18 18 15 15 15 15 14 15 15 15 15 15 15 14 14 13 13 13 13 13 13 13 13 12 12 13
20 19 17 17 17 16 15 16 15 15 15 16 14 14 14 15 14 14 13 14 14 13 12 12 12 12 12 12 12 12 12 12
20 17 16 17 16 15 15 16 17 16 14 14 14 14 14 14 14 13 13 13 13 12 11 11 11 11 11 10 11 11 11 11
19 17 15 16 15 16 16 15 15 14 14 14 14 14 14 14 14 13 13 13 12 12 11 11 10 10 9 9 10 10 10 11
18 17 16 16 17 17 17 16 15 15 15 14 14 14 14 13 13 13 12 12 12 12 11 10 10 10 9 9 7 9 10 9
18 17 16 17 18 18 17 17 16 16 15 14 14 14 13 13 12 12 12 11 11 11 10 10 9 9 9 9 7 6 8 9
18 17 17 18 19 18 18 17 17 16 16 15 14 13 13 13 13 12 11 11 11 10 10 10 9 9 9 8 8 8 6 5
18 18 18 19 19 18 18 18 17 16 16 14 14 13 13 13 13 12 11 11 10 10 10 10 9 8 8 7 7 7 7 6
19 19 19 19 18 18 18 18 17 16 15 15 15 14 14 13 12 11 10 10 10 9 9 9 8 8 7 6 6 5 5 5
20 20 19 18 18 17 16 16 16 15 15 14 14 13 13 11 10 10 9 9 9 9 8 8 8 7 6 5 5 4 4 5
20 20 19 18 17 16 15 15 14 14 14 13 12 12 11 10 10 9 9 8 8 8 8 8 8 7 6 5 4 5 5 4

GFSFLT2_925_temp_039.txt.gz
Temp
17 17 16 18 17 18 18 18 18 18 18 18 18 18 18 18 18 18 18 18 18 18 18 17 17 17 17 18 18 18 17 17
16 16 17 17 17 18 18 18 18 18 18 18 18 18 18 18 18 18 18 18 18 18 18 17 17 17 16 17 17 17 16 16
15 16 17 17 17 17 18 18 18 18 18 18 18 18 18 18 18 18 18 18 18 18 17 17 17 16 16 16 16 16 16 15
16 17 18 17 17 18 18 18 19 19 18 18 17 17 18 18 18 18 18 17 17 17 16 16 16 16 16 16 15 15 15 15
17 17 17 18 18 18 18 18 19 18 18 18 18 17 18 18 18 18 17 17 17 16 16 16 16 16 15 15 15 15 15 15
18 18 18 19 19 18 18 18 18 18 17 18 18 18 18 17 17 17 16 16 16 16 16 16 15 15 15 15 14 14 14 15
18 18 19 19 18 18 18 17 17 18 17 17 17 17 17 17 17 17 17 17 16 16 15 15 14 14 14 14 14 14 14 14
19 19 20 19 18 18 18 18 18 17 17 17 17 17 18 18 17 17 16 16 16 15 14 14 14 13 13 13 13 13 13 13
19 19 19 19 18 18 18 18 17 17 17 17 17 17 16 16 16 16 15 15 14 14 13 13 13 13 12 12 12 12 12 12
19 19 18 18 18 18 18 16 17 18 18 17 15 15 15 15 15 15 14 14 14 13 13 12 12 11 11 11 11 11 11 11
19 18 18 18 18 18 16 16 16 16 16 15 15 14 14 15 14 14 14 14 13 13 12 11 11 10 10 10 10 10 11 10
19 18 18 18 18 17 16 15 14 14 14 14 14 14 14 14 14 14 13 13 13 12 11 11 10 10 10 10 9 10 10 10
19 18 16 17 16 15 14 14 14 13 14 14 14 14 14 14 13 13 13 12 12 11 11 10 10 9 9 9 9 9 9 8
18 17 16 16 16 16 16 15 14 14 15 14 14 14 14 14 13 13 12 12 11 11 10 10 10 9 9 8 5 7 8 8
16 17 17 17 17 17 16 16 15 14 14 14 14 14 13 13 13 12 12 11 11 11 10 10 9 9 9 8 4 4 5 7
17 17 17 17 17 17 16 16 15 15 15 14 14 13 13 13 12 12 12 11 11 10 10 10 10 9 8 8 8 7 3 3
17 17 18 18 17 17 17 16 16 16 15 14 13 13 13 13 12 12 11 10 10 9 9 9 9 8 8 7 6 6 6 3
17 18 18 17 17 18 18 17 15 15 14 14 14 13 12 12 11 11 10 10 9 9 8 8 8 8 8 7 6 5 4 4
19 18 17 18 18 17 17 16 16 15 14 14 13 12 11 11 11 10 9 9 8 8 8 7 7 7 7 6 5 5 4 4
18 17 18 18 18 17 16 15 15 14 14 13 13 12 11 11 10 9 9 8 8 7 7 7 7 6 6 5 5 4 4 3

GFSFLT2_925_temp_042.txt.gz
Temp
14 15 17 18 18 18 18 18 18 18 18 18 18 18 18 18 18 18 18 18 18 17 17 17 17 17 17 17 16 16 16 15
15 15 17 17 17 17 18 18 18 18 19 19 19 19 18 18 18 18 18 18 17 17 17 17 17 16 16 16 16 16 15 15
15 15 15 16 17 18 18 18 18 18 18 18 18 18 18 18 18 18 18 17 17 17 16 16 16 16 15 15 15 15 15 15
15 14 16 16 17 17 18 18 18 18 18 18 18 18 18 18 18 18 17 17 17 16 16 16 16 15 15 15 15 15 15 15
15 15 16 16 17 17 18 18 18 18 17 17 17 17 17 18 17 17 17 16 16 16 16 15 15 15 15 15 14 14 14 14
15 16 16 18 18 18 18 18 18 17 17 17 17 17 17 17 17 17 16 16 16 16 15 15 15 14 14 14 14 13 13 13
16 16 17 18 18 18 18 18 17 17 16 17 17 17 17 17 17 16 16 15 15 15 15 15 14 14 14 13 13 12 13 13
16 17 17 18 18 18 18 17 16 16 17 17 17 17 17 17 16 16 15 15 15 15 14 14 13 13 12 12 12 12 12 12
17 18 18 18 18 18 17 16 16 17 17 17 17 17 17 16 16 15 15 15 15 14 14 13 13 12 12 11 11 11 10 11
18 17 18 18 18 17 17 16 17 17 17 17 17 16 16 16 16 15 15 14 14 13 13 12 12 11 10 10 10 10 10 10
18 18 18 18 17 17 17 16 17 17 17 16 15 15 15 15 15 14 14 13 13 12 12 11 10 10 10 9 10 10 9 9
18 18 18 17 17 17 16 16 16 16 16 15 15 14 14 15 14 14 13 13 12 12 11 10 10 10 9 9 9 9 9 8
18 17 17 17 16 16 15 16 16 15 15 14 14 14 14 14 13 13 13 12 12 11 11 10 10 9 9 9 9 8 8 8
18 18 17 17 17 17 16 16 15 15 14 14 14 14 14 13 13 13 12 12 11 11 11 10 10 9 9 7 4 7 8 8
18 18 17 17 17 16 16 15 14 14 13 13 13 13 13 13 13 13 12 12 11 11 10 10 9 9 8 8 4 3 4 7
17 18 17 16 16 17 16 15 13 13 14 14 13 13 13 13 13 12 12 11 10 10 9 9 8 8 8 8 7 7 3 2
17 17 17 17 17 16 15 15 15 15 14 13 13 13 13 13 12 11 11 10 10 9 9 8 8 8 8 7 7 6 5 3
17 17 17 16 16 16 16 16 15 14 14 13 13 13 12 12 11 11 10 10 9 8 8 8 7 7 7 6 6 5 4 4
15 16 16 16 16 16 16 17 16 15 14 13 13 12 11 10 10 10 9 9 8 8 7 7 6 6 6 6 5 5 5 4
15 16 17 17 17 17 16 16 15 15 14 13 12 11 10 10 9 9 8 8 7 7 7 6 6 5 5 5 4 4 4 3

GFSFLT2_925_temp_045.txt.gz
Temp
15 15 15 16 17 17 17 17 17 17 18 18 18 18 18 18 18 18 18 18 18 18 18 17 17 16 16 16 16 15 15 15
13 13 16 17 16 18 18 18 18 17 18 18 18 18 18 18 18 18 17 17 17 17 17 17 16 16 15 15 15 15 15 15
13 14 15 16 17 18 18 18 17 17 18 18 18 18 18 18 18 17 17 17 16 16 16 16 16 15 15 15 15 14 14 14
13 15 17 18 18 17 17 16 17 17 17 17 17 17 17 17 17 17 17 16 16 16 16 16 16 15 15 14 14 14 14 14
14 15 15 15 16 16 16 16 17 17 17 17 17 17 17 17 17 17 17 16 16 16 16 15 15 15 14 14 13 13 13 13
14 15 16 16 16 16 16 17 17 17 17 16 17 17 17 17 17 16 16 16 15 15 15 14 14 14 14 14 13 12 12 12
14 16 15 16 17 16 17 17 17 16 17 17 17 17 17 17 16 16 16 15 15 15 15 14 13 13 13 13 12 12 12 12
15 16 16 16 16 17 17 16 16 16 17 17 17 17 17 17 16 16 15 15 14 14 14 14 13 13 12 12 11 11 11 11
16 16 16 16 17 17 16 16 16 16 17 17 17 17 17 17 16 15 15 14 14 13 13 13 12 12 12 11 11 10 10 10
16 16 16 16 17 17 16 16 16 16 16 16 17 16 16 16 15 14 14 13 13 13 13 12 12 11 10 10 10 9 9 9
16 16 17 17 17 17 16 16 16 16 16 16 16 16 15 15 14 14 13 13 13 13 12 11 11 10 10 9 9 9 9 9
17 17 17 17 17 16 15 15 16 16 17 16 15 15 14 14 14 14 13 13 13 12 12 11 10 9 9 9 9 8 8 8
17 17 17 17 16 15 15 15 16 16 15 15 14 14 14 14 14 13 13 13 12 12 11 10 9 9 9 8 8 8 8 7
17 17 17 17 17 16 15 16 15 15 14 14 14 14 14 13 14 13 13 12 12 11 10 10 9 9 8 6 4 7 7 7
17 17 17 17 16 16 15 14 15 13 14 13 13 13 13 13 13 13 12 12 11 10 10 9 9 9 8 8 4 3 4 7
17 17 17 17 16 15 15 15 13 14 14 14 13 13 13 13 13 12 12 11 10 9 9 9 8 8 8 7 7 7 3 2
15 15 15 16 16 15 15 15 15 16 14 13 13 13 13 12 12 12 11 10 9 9 9 8 7 7 7 7 6 6 5 3
15 15 15 16 16 16 16 15 15 14 14 13 13 12 12 12 11 10 9 9 9 9 8 7 7 6 6 6 5 5 4 3
15 15 14 16 16 16 15 15 15 15 15 13 12 11 11 10 10 9 9 8 7 7 7 6 6 6 6 6 5 5 4 4
14 14 14 15 15 16 15 15 15 15 14 13 12 11 10 9 9 8 7 7 7 6 6 6 6 5 5 5 5 4 4 3

GFSFLT2_925_temp_048.txt.gz
Temp
15 15 15 17 17 17 17 16 16 16 17 17 17 18 18 18 18 18 18 17 17 17 17 17 16 16 16 15 15 15 15 14
13 14 15 16 17 17 16 16 16 16 17 17 17 17 17 17 18 17 17 17 16 16 16 16 16 15 15 15 15 14 14 14
12 13 15 17 17 16 17 16 16 17 17 17 17 17 17 17 17 17 17 16 16 16 16 15 15 15 14 14 14 14 14 13
12 14 14 15 16 17 16 16 17 17 17 17 17 17 17 17 17 16 16 16 16 16 16 15 15 14 14 14 14 13 13 13
13 13 14 14 15 15 16 17 17 17 17 17 17 17 17 17 16 16 16 16 16 15 15 15 15 15 14 13 13 13 13 13
15 14 15 15 15 16 17 17 16 16 16 16 17 17 17 16 16 16 16 16 15 15 15 14 14 14 13 13 12 12 12 12
12 14 14 16 17 17 16 16 16 16 16 16 16 17 17 17 16 16 15 15 15 15 14 14 14 13 13 12 12 11 11 11
14 15 15 15 16 17 16 16 16 16 16 16 16 17 17 17 16 15 15 14 14 14 14 13 13 12 12 11 11 11 11 11
14 14 15 16 16 17 16 16 16 16 16 16 16 17 17 17 16 15 14 14 14 14 13 13 12 12 11 11 10 10 10 10
14 15 16 16 16 16 16 16 16 16 16 17 17 17 15 16 15 15 14 14 13 13 13 12 12 11 11 10 9 9 9 9
15 15 16 16 16 16 16 16 16 16 16 16 16 16 16 15 15 15 14 13 13 13 12 12 11 10 10 9 9 8 8 9
15 15 16 16 16 15 15 15 15 15 15 16 16 15 15 15 14 14 14 13 12 12 12 11 10 10 9 9 8 8 8 8
16 16 16 16 16 15 15 14 14 14 14 16 15 15 14 14 14 14 13 13 12 12 11 10 9 9 9 8 7 7 7 7
16 16 16 16 16 16 15 14 14 14 15 15 14 14 14 14 14 13 12 12 12 11 10 10 9 8 8 6 4 6 7 7
17 17 17 17 16 15 14 14 13 13 13 14 14 13 13 13 13 13 12 12 11 10 10 9 9 8 8 8 4 4 4 7
16 16 16 16 16 15 14 15 13 13 15 15 13 13 13 12 13 12 11 11 10 9 9 9 8 8 7 7 7 6 3 3
16 16 16 15 15 15 15 14 14 14 14 13 13 12 12 12 11 11 10 10 9 9 8 7 6 7 7 6 6 6 5 3
16 15 15 15 14 14 15 15 14 14 13 13 12 12 11 11 11 11 10 9 9 8 7 6 7 6 6 6 5 5 4 3
15 15 14 15 14 14 15 15 14 14 13 13 12 11 11 10 10 9 9 8 8 7 7 7 7 6 6 5 5 5 4 4
15 15 14 14 15 15 14 14 13 13 13 13 13 12 10 9 9 8 8 8 7 6 7 7 6 6 5 5 5 4 4 3